Flag for Saint Lucia Weather past 2 weeks in Vieux Fort, Saint Lucia

Now
81 °F

Passing clouds.


Feels Like: 83 °F
Forecast: N/A
Wind: 15 mph from East

Location: Hewanorra International Airport

Current Time: Jan 29, 2015 at 7:18:22 PM

Latest Report: Jan 29, 2015 at 6:00 PM


Visibility: N/A

Pressure: 29.95 "Hg

Humidity: 66%

Dew point: 68 °F

Location of Vieux FortLocation

Historic Weather in Vieux Fort — Graph

°F

Vieux Fort temperature yesterday

Maximum temperature yesterday: 84 °F (at 10:00 AM)
Minimum temperature yesterday: 77 °F (at 9:00 PM)
Average temperature yesterday: 81 °F

Past Weeks' High & Low Weather Summary

 TemperatureHumidityPressure
High95 °F (Jan 26, 5:00 AM)94% (Jan 15, 8:00 AM)30.07 "Hg (Jan 15, 8:00 AM)
Low72 °F (Jan 21, 7:00 AM)47% (Jan 26, 5:00 AM)29.56 "Hg (Jan 27, 5:00 PM)
Average80 °F76%29.97 "Hg
* Reported Jan 14 6:00 PM — Jan 29 6:00 PM, Vieux Fort, Weather by CustomWeather, © 2014

Note: Actual official high and low records may vary slightly from our data, if they occured in-between our weather recording intervals... More about our weather records

Advertising

Vieux Fort weather history for previous 24 hours

 ConditionsComfort  
Time TempWeatherWind HumidityBarometerVisibility
6:00 PM
Jan 29
81 °FPassing clouds.15 mph66%29.95 "HgN/A
5:00 PM81 °FPassing clouds.17 mph70%29.92 "HgN/A
4:00 PM82 °FPassing clouds.14 mph62%29.92 "HgN/A
3:00 PM84 °FPassing clouds.15 mph62%29.92 "HgN/A
2:00 PM84 °FPassing clouds.18 mph62%29.95 "HgN/A
1:00 PM84 °FPassing clouds.16 mph58%29.95 "HgN/A
12:00 PM84 °FPassing clouds.17 mph58%29.98 "HgN/A
11:00 AM84 °FPassing clouds.21 mph62%30.01 "HgN/A
10:00 AM84 °FPassing clouds.20 mph62%30.01 "HgN/A
9:00 AM82 °FPassing clouds.20 mph62%30.01 "HgN/A
7:00 AM79 °FScattered clouds.20 mph74%29.95 "HgN/A
6:00 AM79 °FPassing clouds.21 mph65%29.95 "HgN/A
5:00 AM79 °FPassing clouds.18 mph61%29.92 "HgN/A
4:00 AM75 °FPassing clouds.20 mph94%29.92 "HgN/A
3:00 AM79 °FPassing clouds.18 mph74%29.92 "HgN/A
2:00 AM79 °FPassing clouds.17 mph79%30.07 "HgN/A
1:00 AM79 °FPassing clouds.17 mph74%29.95 "HgN/A
12:00 AM79 °FPassing clouds.18 mph79%29.95 "HgN/A
11:00 PM
Jan 28
79 °FPassing clouds.16 mph79%29.95 "HgN/A
10:00 PM79 °FPassing clouds.18 mph74%29.98 "HgN/A
9:00 PM77 °FLight rain. Passing clouds.16 mph83%29.95 "HgN/A
8:00 PM79 °FPartly cloudy.18 mph74%29.95 "HgN/A
7:00 PM79 °FPassing clouds.18 mph79%29.95 "HgN/A
Weather by CustomWeather, © 2014

See weather overviewHow to use our weather pages